Change the Weather History Date:

Monday, August 5, 2013

  Actual Average (KARR) Record (KARR)
Temperature  
Mean Temperature 64 °F 71 °F  
Max Temperature 71 °F 82 °F 90 °F (2001)
Min Temperature 58 °F 59 °F 51 °F (1997)
Degree Days  
Heating Degree Days 0 0  
Month to date heating degree days 0  
Since 1 June heating degree days 50  
Since 1 July heating degree days 9  
Cooling Degree Days 0 6  
Month to date cooling degree days 30  
Year to date cooling degree days 441  
Since 1 June cooling degree days 400  
Growing Degree Days 14 (Base 50)    
Moisture  
Dew Point 61 °F    
Average Humidity 85    
Maximum Humidity 91    
Minimum Humidity 72    
Precipitation  
Precipitation 0.12 in 0.15 in 0.81 in (2000)
Month to date precipitation 0.82  
Year to date precipitation 21.90  
Sea Level Pressure  
Sea Level Pressure 30.01 in    
Wind  
Wind Speed 8 mph (SSE)    
Max Wind Speed 23 mph    
Max Gust Speed 32 mph    
Visibility 10 miles    
Events Rain    
T = Trace of Precipitation, MM = Missing Value Source: NWS Daily Summary

Daily Weather History Graph

Daily Weather History Graph

Search for Another Location

Airport or City:

Trip Planner

Search our weather history database for the weather conditions in past years. The results will help you decide how hot, cold, wet, or windy it might be!

Date:

Astronomy

Aug. 05, 2013 Rise Set
Actual Time 5:52 AM CDT 8:08 PM CDT
Civil Twilight 5:21 AM CDT 8:39 PM CDT
Nautical Twilight 4:43 AM CDT 9:17 PM CDT
Astronomical Twilight 4:00 AM CDT 9:59 PM CDT
Moon 4:48 AM CDT (8/5) 7:07 PM CDT (8/5)
Length of Visible Light 15h 17m
Length of Day
14h 15m
Waning Crescent, 1% of the Moon is Illuminated
Aug 5
Waning Crescent
Aug 6
New
Aug 14
First Quarter
Aug 20
Full
Aug 28
Last Quarter

Hourly Weather History & Observations

Time (CDT) Temp. Dew Point Humidity Pressure Visibility Wind Dir Wind Speed Gust Speed Precip Events Conditions
12:15 AM 62.1 °F 57.4 °F 85% 30.15 in 10.0 mi SE 4.6 mph - N/A   Mostly Cloudy
12:35 AM 61.7 °F 57.2 °F 85% 30.14 in 10.0 mi SE 4.6 mph - N/A   Mostly Cloudy
12:55 AM 61.9 °F 57.2 °F 85% 30.14 in 10.0 mi SE 4.6 mph - N/A   Mostly Cloudy
1:15 AM 62.1 °F 57.2 °F 84% 30.13 in 10.0 mi SE 5.8 mph - N/A   Mostly Cloudy
1:35 AM 61.7 °F 57.0 °F 85% 30.12 in 10.0 mi ESE 5.8 mph - N/A   Scattered Clouds
1:55 AM 60.8 °F 56.7 °F 86% 30.11 in 10.0 mi ESE 5.8 mph - N/A   Scattered Clouds
2:15 AM 60.8 °F 56.7 °F 86% 30.10 in 10.0 mi SE 6.9 mph - N/A   Clear
2:35 AM 60.8 °F 56.5 °F 86% 30.10 in 10.0 mi ESE 6.9 mph - N/A   Clear
2:55 AM 60.4 °F 56.3 °F 86% 30.10 in 10.0 mi ESE 4.6 mph - N/A   Clear
3:15 AM 59.5 °F 55.6 °F 87% 30.09 in 10.0 mi SE 5.8 mph - N/A   Clear
3:35 AM 59.7 °F 55.6 °F 86% 30.09 in 10.0 mi SE 5.8 mph - N/A   Clear
3:55 AM 59.9 °F 55.6 °F 86% 30.09 in 10.0 mi SE 5.8 mph - N/A   Clear
4:15 AM 59.2 °F 55.2 °F 87% 30.08 in 10.0 mi SSE 5.8 mph - N/A   Clear
4:35 AM 58.5 °F 54.9 °F 88% 30.09 in 10.0 mi SSE 6.9 mph - N/A   Clear
4:55 AM 59.0 °F 55.4 °F 88% 30.08 in 10.0 mi SSE 8.1 mph - N/A   Clear
5:15 AM 59.4 °F 55.4 °F 87% 30.09 in 10.0 mi SSE 8.1 mph - N/A   Clear
5:35 AM 59.2 °F 55.4 °F 87% 30.08 in 10.0 mi SE 6.9 mph - N/A   Clear
5:55 AM 59.5 °F 55.6 °F 87% 30.08 in 10.0 mi SE 5.8 mph - N/A   Clear
6:15 AM 59.9 °F 55.6 °F 86% 30.07 in 10.0 mi SE 8.1 mph - N/A   Clear
6:35 AM 60.4 °F 55.9 °F 85% 30.07 in 10.0 mi SSE 8.1 mph - N/A   Clear
6:55 AM 60.4 °F 56.1 °F 86% 30.08 in 10.0 mi SE 5.8 mph - N/A   Clear
7:15 AM 60.8 °F 56.3 °F 85% 30.09 in 10.0 mi SSE 4.6 mph - N/A   Scattered Clouds
7:35 AM 60.6 °F 56.1 °F 85% 30.09 in 10.0 mi SE 3.5 mph - N/A   Scattered Clouds
7:55 AM 61.3 °F 56.5 °F 84% 30.09 in 10.0 mi SE 4.6 mph - N/A   Scattered Clouds
8:15 AM 62.2 °F 57.2 °F 84% 30.09 in 10.0 mi SSE 5.8 mph - N/A   Mostly Cloudy
8:35 AM 62.6 °F 57.9 °F 85% 30.09 in 10.0 mi South 5.8 mph - N/A   Mostly Cloudy
8:55 AM 62.4 °F 58.1 °F 86% 30.08 in 10.0 mi South 5.8 mph - N/A   Mostly Cloudy
9:15 AM 63.5 °F 59.0 °F 85% 30.07 in 10.0 mi SSE 4.6 mph - N/A   Scattered Clouds
9:35 AM 63.7 °F 59.4 °F 86% 30.06 in 10.0 mi NE 3.5 mph - N/A   Clear
9:55 AM 64.4 °F 59.9 °F 85% 30.07 in 10.0 mi SW 4.6 mph - N/A   Clear
10:15 AM 64.4 °F 60.1 °F 86% 30.08 in 10.0 mi SW 4.6 mph - N/A Rain Light Rain
10:35 AM 64.6 °F 60.8 °F 88% 30.07 in 7.0 mi WSW 4.6 mph - 0.01 in Rain Rain
10:55 AM 64.0 °F 60.8 °F 89% 30.06 in 5.0 mi SW 4.6 mph - 0.05 in Rain Heavy Rain
11:15 AM 63.7 °F 60.8 °F 90% 30.02 in 5.0 mi South 15.0 mph - 0.03 in Rain Rain
11:35 AM 63.5 °F 60.8 °F 91% 29.97 in 5.0 mi SSW 17.3 mph 25.3 mph 0.05 in Rain Light Rain
11:55 AM 64.4 °F 61.2 °F 89% 29.96 in 7.0 mi South 11.5 mph - 0.07 in Rain Light Rain
12:15 PM 67.6 °F 64.4 °F 89% 29.95 in 10.0 mi South 19.6 mph - N/A   Clear
12:35 PM 69.8 °F 64.4 °F 83% 29.96 in 10.0 mi SSW 20.7 mph 28.8 mph N/A   Clear
12:55 PM 70.7 °F 63.1 °F 77% 29.99 in 10.0 mi SSW 23.0 mph 32.2 mph N/A   Clear
1:15 PM 71.6 °F 63.7 °F 76% 30.00 in 10.0 mi SSW 20.7 mph 25.3 mph N/A   Scattered Clouds
1:35 PM 70.9 °F 62.6 °F 75% 30.00 in 10.0 mi SSW 16.1 mph 20.7 mph N/A   Mostly Cloudy
1:55 PM 70.9 °F 63.9 °F 78% 29.99 in 10.0 mi SSW 17.3 mph 26.5 mph N/A   Mostly Cloudy
2:15 PM 71.6 °F 63.0 °F 74% 29.99 in 10.0 mi SSW 18.4 mph 24.2 mph N/A   Scattered Clouds
2:35 PM 71.4 °F 62.1 °F 72% 29.98 in 10.0 mi South 21.9 mph 25.3 mph N/A   Scattered Clouds
2:55 PM 70.7 °F 63.3 °F 77% 29.98 in 10.0 mi South 16.1 mph - N/A   Mostly Cloudy
3:15 PM 70.5 °F 64.4 °F 81% 29.96 in 10.0 mi South 15.0 mph 19.6 mph N/A   Mostly Cloudy
3:35 PM 70.9 °F 63.1 °F 76% 29.96 in 10.0 mi South 16.1 mph - N/A   Overcast
3:55 PM 70.7 °F 63.7 °F 78% 29.96 in 10.0 mi South 13.8 mph 19.6 mph N/A   Overcast
4:15 PM 71.1 °F 64.4 °F 79% 29.95 in 10.0 mi South 13.8 mph - N/A   Overcast
4:35 PM 70.7 °F 63.9 °F 79% 29.95 in 10.0 mi South 12.7 mph 18.4 mph N/A   Overcast
4:55 PM 70.7 °F 63.9 °F 79% 29.95 in 10.0 mi SSW 10.4 mph - N/A   Overcast
5:15 PM 70.3 °F 64.4 °F 81% 29.93 in 10.0 mi South 13.8 mph - N/A Rain Light Rain
5:35 PM 69.6 °F 64.8 °F 84% 29.93 in 10.0 mi South 10.4 mph - N/A Rain Light Rain
5:55 PM 70.0 °F 64.9 °F 84% 29.89 in 10.0 mi South 16.1 mph 21.9 mph N/A Rain Light Rain
6:15 PM 70.5 °F 65.3 °F 83% 29.89 in 10.0 mi South 16.1 mph 21.9 mph N/A   Scattered Clouds
6:35 PM 71.2 °F 65.5 °F 82% 29.89 in 10.0 mi South 11.5 mph - N/A   Scattered Clouds
6:55 PM 70.7 °F 65.1 °F 82% 29.90 in 10.0 mi South 10.4 mph - N/A   Mostly Cloudy
7:15 PM 70.7 °F 65.3 °F 83% 29.90 in 10.0 mi South 5.8 mph - N/A   Overcast
7:35 PM 69.6 °F 64.9 °F 85% 29.91 in 10.0 mi South 4.6 mph - N/A   Mostly Cloudy
7:55 PM 69.3 °F 65.1 °F 87% 29.91 in 10.0 mi South 4.6 mph - N/A   Overcast
8:15 PM 69.3 °F 65.3 °F 87% 29.91 in 10.0 mi SSE 4.6 mph - N/A   Overcast
8:35 PM 69.1 °F 65.3 °F 88% 29.91 in 10.0 mi SSE 4.6 mph - N/A   Overcast
8:55 PM 68.9 °F 64.8 °F 87% 29.91 in 10.0 mi SSE 4.6 mph - N/A   Overcast
9:15 PM 68.7 °F 64.8 °F 87% 29.92 in 10.0 mi SSE 4.6 mph - N/A   Overcast
9:35 PM 68.2 °F 64.6 °F 88% 29.92 in 10.0 mi South 5.8 mph - N/A   Overcast
9:55 PM 68.0 °F 64.4 °F 88% 29.91 in 10.0 mi South 5.8 mph - N/A   Overcast
10:15 PM 68.0 °F 64.4 °F 88% 29.91 in 10.0 mi SSE 6.9 mph - N/A   Overcast
10:35 PM 68.0 °F 64.0 °F 87% 29.91 in 10.0 mi SSE 6.9 mph - N/A   Overcast
10:55 PM 67.6 °F 64.0 °F 88% 29.90 in 10.0 mi SSE 6.9 mph - N/A   Overcast
11:15 PM 67.8 °F 64.2 °F 88% 29.91 in 10.0 mi SSE 4.6 mph - N/A   Overcast
11:35 PM 67.6 °F 64.4 °F 89% 29.90 in 10.0 mi SSE 5.8 mph - N/A   Overcast
11:55 PM 67.3 °F 64.2 °F 90% 29.90 in 10.0 mi SSE 5.8 mph - N/A   Overcast